Погода в Абае

Казахстан     41°20′54″N   68°56′42″E
темп.,
°C
ветер,
м/с
пор.,
м/с
влажн.,
%
обл.,
%
осадки,
мм/ч
давл.,
гПа
погр.,
м
2 марта, вт
вт200:00+8ююз23500 0.0 102127
03:00+7ююз124715 0.0 102122
06:00+7ююз344738 0.0 102257
09:00+7ю2250100 0.0 102333
12:00+12ю2337100 0.0 1023306
15:00+15зсз2232100 0.0 1021760
18:00+14сз3436100 0.0 1021438
21:00+9с4852100 0.0 1023241
3 марта, ср
ср300:00+8с4656100 0.0 1024181
03:00+8ссв2358100 0.0 102476
06:00+6ссз2368100 0.0 102478
09:00+6всв017194 0.0 102468
12:00+11ю455697 0.0 1023709
15:00+13юз235089 0.0 10211244
18:00+13юз235094 0.1 10211105
21:00+9ссв227498 0.1 1022305
4 марта, чт
чт400:00+9вюв357897 0.1 1022281
03:00+8юв338146 0.0 102168
06:00+7юв238023 0.0 102129
09:00+7юв22710 0.0 102138
12:00+14ююв35497 0.0 1019477
15:00+17ю463832 0.0 10171399
18:00+16ю474336 0.0 1016865
21:00+13ю595694 0.4 1019343
5 марта, пт
пт500:00+9зсз7107096 4.3 1024841
03:00+5сз4685100 3.8 1028644
06:00+4ссз357989 4.8 1031345
09:00+3с45805 0.0 1033226
12:00+7ссв22593 0.0 1030630
15:00+11всв23360 0.0 10271161
18:00+12св01300 0.0 1025850
21:00+8ссз34560 0.0 102491
6 марта, сб
сб600:00+7св345917 0.0 102277
03:00+7св2338100 0.0 101834
06:00+6ссв353699 0.0 101591
09:00+7ссв2339100 0.0 101375
12:00+12юз1228100 0.0 1011309
15:00+14зюз3429100 0.0 1011621
18:00+12ссз4642100 0.0 1012435
21:00+10ссз3552100 0.0 1013124